Time,TemperatureF,DewpointF,PressureIn,WindDirection,WindDirectionDegrees,WindSpeedMPH,WindSpeedGustMPH,Humidity,HourlyPrecipIn,Conditions,Clouds,dailyrainin,SolarRadiationWatts/m^2,SoftwareType,DateUTC
2013-03-14 01:42:00,50.0,10.0,30.22,SSW,193,1.0,2.0,19,-99.99,,,-99.99,0.000000,,2013-03-14 07:42:00,
2013-03-14 01:52:00,50.0,10.0,30.22,SSW,193,1.0,2.0,19,-99.99,,,-99.99,0.000000,,2013-03-14 07:52:00,
2013-03-14 02:02:00,49.0,10.0,30.22,SSW,193,2.0,3.0,19,-99.99,,,-99.99,0.000000,,2013-03-14 08:02:00,
2013-03-14 02:12:00,49.0,10.0,30.22,SSW,193,2.0,3.0,20,-99.99,,,-99.99,0.000000,,2013-03-14 08:12:00,
2013-03-14 02:22:00,49.0,10.0,30.22,SSW,193,2.0,3.0,20,-99.99,,,-99.99,0.000000,,2013-03-14 08:22:00,
2013-03-14 02:32:00,49.0,10.0,30.22,SSW,193,2.0,3.0,20,-99.99,,,-99.99,0.000000,,2013-03-14 08:32:00,
2013-03-14 02:41:00,45.0,8.0,30.23,ENE,75,5.0,7.0,21,-99.99,,,-99.99,0.000000,,2013-03-14 08:41:00,
2013-03-14 02:52:00,45.0,8.0,30.23,ENE,75,5.0,7.0,21,-99.99,,,-99.99,0.000000,,2013-03-14 08:52:00,
2013-03-14 03:01:00,44.0,8.0,30.23,ESE,109,5.0,7.0,22,-99.99,,,-99.99,0.000000,,2013-03-14 09:01:00,
2013-03-14 03:12:00,43.0,8.0,30.22,ESE,117,2.0,4.0,23,-99.99,,,-99.99,0.000000,,2013-03-14 09:12:00,
2013-03-14 03:22:00,43.0,8.0,30.22,ESE,117,2.0,4.0,23,-99.99,,,-99.99,0.000000,,2013-03-14 09:22:00,
2013-03-14 03:32:00,42.0,7.0,30.22,SSE,155,2.0,3.0,23,-99.99,,,-99.99,0.000000,,2013-03-14 09:32:00,
2013-03-14 03:42:00,43.0,8.0,30.22,SSE,164,2.0,4.0,23,-99.99,,,-99.99,0.000000,,2013-03-14 09:42:00,
2013-03-14 03:52:00,43.0,8.0,30.22,SSE,164,2.0,4.0,23,-99.99,,,-99.99,0.000000,,2013-03-14 09:52:00,
2013-03-14 04:02:00,43.0,9.0,30.21,South,174,1.0,3.0,24,-99.99,,,-99.99,0.000000,,2013-03-14 10:02:00,
2013-03-14 04:12:00,45.0,10.0,30.21,SE,139,4.0,6.0,23,-99.99,,,-99.99,0.000000,,2013-03-14 10:12:00,
2013-03-14 04:22:00,45.0,10.0,30.21,SE,139,4.0,6.0,23,-99.99,,,-99.99,0.000000,,2013-03-14 10:22:00,
2013-03-14 04:32:00,44.0,8.0,30.21,SE,136,1.0,6.0,22,-99.99,,,-99.99,0.000000,,2013-03-14 10:32:00,
2013-03-14 04:42:00,43.0,10.0,30.21,ENE,63,1.0,2.0,25,-99.99,,,-99.99,0.000000,,2013-03-14 10:42:00,
2013-03-14 04:52:00,43.0,10.0,30.21,ENE,63,1.0,2.0,25,-99.99,,,-99.99,0.000000,,2013-03-14 10:52:00,
2013-03-14 05:02:00,45.0,10.0,30.21,ESE,115,3.0,3.0,23,-99.99,,,-99.99,0.000000,,2013-03-14 11:02:00,
2013-03-14 05:12:00,44.0,9.0,30.21,SE,141,1.0,3.0,23,-99.99,,,-99.99,0.000000,,2013-03-14 11:12:00,
2013-03-14 05:22:00,44.0,9.0,30.21,SE,141,1.0,3.0,23,-99.99,,,-99.99,0.000000,,2013-03-14 11:22:00,
2013-03-14 05:33:00,39.0,6.0,30.21,NNE,17,2.0,6.0,24,-99.99,,,-99.99,0.000000,,2013-03-14 11:33:00,
2013-03-14 05:42:00,35.0,5.0,30.22,North,2,6.0,7.0,26,-99.99,,,-99.99,0.000000,,2013-03-14 11:42:00,
2013-03-14 05:52:00,35.0,5.0,30.22,North,2,6.0,7.0,26,-99.99,,,-99.99,0.000000,,2013-03-14 11:52:00,
2013-03-14 06:02:00,35.0,5.0,30.22,NE,35,6.0,7.0,27,-99.99,,,-99.99,0.000000,,2013-03-14 12:02:00,
2013-03-14 06:12:00,38.0,7.0,30.23,NE,40,6.0,7.0,27,-99.99,,,-99.99,0.000000,,2013-03-14 12:12:00,
2013-03-14 06:22:00,38.0,7.0,30.23,NE,40,6.0,7.0,27,-99.99,,,-99.99,0.000000,,2013-03-14 12:22:00,
2013-03-14 06:33:00,38.0,7.0,30.23,NNE,30,5.0,7.0,26,-99.99,,,-99.99,0.000000,,2013-03-14 12:33:00,
2013-03-14 06:42:00,37.0,6.0,30.24,NNE,29,5.0,6.0,27,-99.99,,,-99.99,0.000000,,2013-03-14 12:42:00,
2013-03-14 06:52:00,37.0,6.0,30.24,NNE,29,5.0,6.0,27,-99.99,,,-99.99,0.000000,,2013-03-14 12:52:00,
2013-03-14 07:02:00,37.0,7.0,30.24,NNE,28,5.0,6.0,28,-99.99,,,-99.99,0.000000,,2013-03-14 13:02:00,
2013-03-14 07:12:00,39.0,10.0,30.25,NNE,15,5.0,5.0,29,-99.99,,,-99.99,0.000000,,2013-03-14 13:12:00,
2013-03-14 07:22:00,39.0,10.0,30.25,NNE,15,5.0,5.0,29,-99.99,,,-99.99,0.000000,,2013-03-14 13:22:00,
2013-03-14 07:32:00,37.0,7.0,30.25,North,356,5.0,6.0,28,-99.99,,,-99.99,0.000000,,2013-03-14 13:32:00,
2013-03-14 07:42:00,36.0,8.0,30.25,North,7,6.0,8.0,30,-99.99,,,-99.99,1.390000,,2013-03-14 13:42:00,
2013-03-14 07:52:00,36.0,8.0,30.25,North,7,6.0,8.0,30,-99.99,,,-99.99,1.390000,,2013-03-14 13:52:00,
2013-03-14 08:02:00,38.0,10.0,30.26,NNE,17,5.0,6.0,30,-99.99,,,-99.99,10.460000,,2013-03-14 14:02:00,
2013-03-14 08:12:00,39.0,10.0,30.26,North,8,3.0,5.0,29,-99.99,,,-99.99,43.230000,,2013-03-14 14:12:00,
2013-03-14 08:22:00,39.0,10.0,30.26,North,8,3.0,5.0,29,-99.99,,,-99.99,43.230000,,2013-03-14 14:22:00,
2013-03-14 08:32:00,39.0,10.0,30.27,ENE,58,5.0,7.0,29,-99.99,,,-99.99,103.900002,,2013-03-14 14:32:00,
2013-03-14 08:42:00,41.0,11.0,30.28,NE,53,6.0,8.0,29,-99.99,,,-99.99,165.970001,,2013-03-14 14:42:00,
2013-03-14 08:53:00,41.0,11.0,30.28,NE,53,6.0,8.0,29,-99.99,,,-99.99,165.970001,,2013-03-14 14:53:00,
2013-03-14 09:02:00,44.0,13.0,30.29,NE,42,6.0,9.0,27,-99.99,,,-99.99,222.449997,,2013-03-14 15:02:00,
2013-03-14 09:12:00,47.0,15.0,30.29,NE,39,7.0,10.0,26,-99.99,,,-99.99,278.239990,,2013-03-14 15:12:00,
2013-03-14 09:22:00,47.0,15.0,30.29,NE,39,7.0,10.0,26,-99.99,,,-99.99,278.239990,,2013-03-14 15:22:00,
2013-03-14 09:32:00,47.0,15.0,30.29,NE,39,7.0,10.0,26,-99.99,,,-99.99,278.239990,,2013-03-14 15:32:00,
2013-03-14 09:43:00,47.0,15.0,30.29,NE,39,7.0,10.0,26,-99.99,,,-99.99,278.239990,,2013-03-14 15:43:00,
2013-03-14 11:12:00,62.0,17.0,30.32,NNE,20,5.0,7.0,17,-99.99,,,-99.99,686.869995,,2013-03-14 17:12:00,
2013-03-14 11:23:00,62.0,17.0,30.32,NNE,20,5.0,7.0,17,-99.99,,,-99.99,686.869995,,2013-03-14 17:23:00,
2013-03-14 11:32:00,64.0,17.0,30.32,NNE,14,4.0,7.0,16,-99.99,,,-99.99,718.950012,,2013-03-14 17:32:00,
2013-03-14 11:42:00,66.0,16.0,30.32,North,1,3.0,5.0,14,-99.99,,,-99.99,748.239990,,2013-03-14 17:42:00,
2013-03-14 11:52:00,66.0,16.0,30.32,North,1,3.0,5.0,14,-99.99,,,-99.99,748.239990,,2013-03-14 17:52:00,
2013-03-14 12:02:00,68.0,15.0,30.31,NE,37,1.0,6.0,12,-99.99,,,-99.99,773.340027,,2013-03-14 18:02:00,
2013-03-14 12:12:00,70.0,16.0,30.30,South,169,1.0,5.0,12,-99.99,,,-99.99,794.960022,,2013-03-14 18:12:00,
2013-03-14 12:22:00,71.0,15.0,30.29,SSW,205,3.0,7.0,11,-99.99,,,-99.99,814.489990,,2013-03-14 18:22:00,
2013-03-14 12:32:00,71.0,15.0,30.29,SSW,205,3.0,7.0,11,-99.99,,,-99.99,814.489990,,2013-03-14 18:32:00,
2013-03-14 12:43:00,72.0,16.0,30.29,SSW,200,1.0,6.0,11,-99.99,,,-99.99,831.919983,,2013-03-14 18:43:00,
2013-03-14 12:52:00,72.0,16.0,30.29,SW,214,4.0,7.0,11,-99.99,,,-99.99,847.960022,,2013-03-14 18:52:00,
2013-03-14 13:00:00,75.0,16.0,30.28,ESE,110,1.0,6.0,10,-99.99,,,-99.99,863.299988,,2013-03-14 19:00:00,
2013-03-14 13:02:00,72.0,16.0,30.29,SW,214,4.0,7.0,11,-99.99,,,-99.99,847.960022,,2013-03-14 19:02:00,
2013-03-14 13:12:00,73.0,16.0,30.28,SSW,197,2.0,5.0,11,-99.99,,,-99.99,859.109985,,2013-03-14 19:12:00,
2013-03-14 13:23:00,73.0,16.0,30.28,SSW,197,2.0,5.0,11,-99.99,,,-99.99,859.109985,,2013-03-14 19:23:00,
2013-03-14 13:32:00,75.0,16.0,30.28,ESE,110,1.0,6.0,10,-99.99,,,-99.99,863.299988,,2013-03-14 19:32:00,
2013-03-14 13:42:00,75.0,16.0,30.28,ESE,110,1.0,6.0,10,-99.99,,,-99.99,863.299988,,2013-03-14 19:42:00,
2013-03-14 13:52:00,75.0,16.0,30.28,ESE,110,1.0,6.0,10,-99.99,,,-99.99,863.299988,,2013-03-14 19:52:00,
2013-03-14 14:30:00,77.0,16.0,30.22,SSE,159,5.0,8.0,9,-99.99,,,-99.99,820.760010,,2013-03-14 20:30:00,
2013-03-14 14:32:00,76.0,15.0,30.24,North,2,3.0,8.0,9,-99.99,,,-99.99,852.140015,,2013-03-14 20:32:00,
2013-03-14 14:42:00,77.0,16.0,30.23,ENE,57,3.0,8.0,9,-99.99,,,-99.99,836.799988,,2013-03-14 20:42:00,
2013-03-14 14:52:00,77.0,16.0,30.23,ENE,57,3.0,8.0,9,-99.99,,,-99.99,836.799988,,2013-03-14 20:52:00,
2013-03-14 15:02:00,77.0,16.0,30.22,SSE,159,5.0,8.0,9,-99.99,,,-99.99,820.760010,,2013-03-14 21:02:00,
2013-03-14 15:12:00,77.0,16.0,30.22,SSE,159,5.0,8.0,9,-99.99,,,-99.99,820.760010,,2013-03-14 21:12:00,
2013-03-14 15:22:00,77.0,16.0,30.22,SSE,159,5.0,8.0,9,-99.99,,,-99.99,820.760010,,2013-03-14 21:22:00,
2013-03-14 21:02:00,68.0,12.0,30.15,SSW,206,6.0,8.0,11,-99.99,,,-99.99,0.000000,,2013-03-15 03:02:00,
2013-03-14 21:12:00,68.0,12.0,30.15,South,186,5.0,7.0,11,-99.99,,,-99.99,0.000000,,2013-03-15 03:12:00,
2013-03-14 21:22:00,68.0,12.0,30.15,South,186,5.0,7.0,11,-99.99,,,-99.99,0.000000,,2013-03-15 03:22:00,
2013-03-14 21:33:00,66.0,12.0,30.15,SSW,192,6.0,7.0,11,-99.99,,,-99.99,0.000000,,2013-03-15 03:33:00,
2013-03-14 21:43:00,67.0,12.0,30.16,SSW,205,5.0,6.0,11,-99.99,,,-99.99,0.000000,,2013-03-15 03:43:00,
2013-03-14 21:53:00,67.0,12.0,30.16,SSW,205,5.0,6.0,11,-99.99,,,-99.99,0.000000,,2013-03-15 03:53:00,
2013-03-14 22:03:00,65.0,11.0,30.16,SSW,198,5.0,7.0,12,-99.99,,,-99.99,0.000000,,2013-03-15 04:03:00,
2013-03-14 22:12:00,63.0,11.0,30.16,South,187,6.0,8.0,12,-99.99,,,-99.99,0.000000,,2013-03-15 04:12:00,
2013-03-14 22:23:00,63.0,11.0,30.16,South,187,6.0,8.0,12,-99.99,,,-99.99,0.000000,,2013-03-15 04:23:00,
2013-03-14 22:32:00,63.0,11.0,30.16,SSW,195,6.0,8.0,12,-99.99,,,-99.99,0.000000,,2013-03-15 04:32:00,
2013-03-14 22:43:00,61.0,10.0,30.17,SSW,212,5.0,7.0,13,-99.99,,,-99.99,0.000000,,2013-03-15 04:43:00,
2013-03-14 22:53:00,61.0,10.0,30.17,SSW,212,5.0,7.0,13,-99.99,,,-99.99,0.000000,,2013-03-15 04:53:00,
2013-03-14 23:02:00,59.0,10.0,30.17,SSW,210,2.0,6.0,13,-99.99,,,-99.99,0.000000,,2013-03-15 05:02:00,
2013-03-14 23:12:00,60.0,11.0,30.16,SW,228,1.0,3.0,14,-99.99,,,-99.99,0.000000,,2013-03-15 05:12:00,
2013-03-14 23:22:00,60.0,11.0,30.16,SW,228,1.0,3.0,14,-99.99,,,-99.99,0.000000,,2013-03-15 05:22:00,
2013-03-14 23:32:00,59.0,11.0,30.16,SW,236,2.0,4.0,14,-99.99,,,-99.99,0.000000,,2013-03-15 05:32:00,
2013-03-14 23:42:00,58.0,12.0,30.17,WSW,237,2.0,3.0,15,-99.99,,,-99.99,0.000000,,2013-03-15 05:42:00,
2013-03-14 23:52:00,58.0,12.0,30.17,WSW,237,2.0,3.0,15,-99.99,,,-99.99,0.000000,,2013-03-15 05:52:00,